Current weather by "City, St" or "zip code"  
 
Advertise Here

Current Conditions: Decatur, Pryor Field, AL

Fair


68.0 F

Last Updated on May 12 2021, 12:53 pm CDT
Humidity: 51%
Wind Speed: N 16.1 G 24.2 mph
Barometer 30.19 in
Dewpoint: 48.9 F
Visibility: 10.00 mi
Precip: --
Heat Index: NA
Wind Chill: NA
Current conditions at:

Decatur, Pryor Field, AL (KDCU)

Lat: 34.65806 Lon: 86.94333

Local Radar Image active severe weather and emergency alerts image image weather storm and storm spotter reports image weather observation monitoring service image
Local
Radar
Active
Alerts
Storm Reports Obs
Monitoring

Sign-up For Email & Text Message Weather Alert Notification Services


Advertise Here

Observation History for Decatur, Pryor Field, AL


Time Wind
(mph)
Vis
(mi)
Weather Precip (in) Temperature (F) Relative
Humidity
Wind
Chill
(F)
Heat
Index
(F)
Pressure
Air Dwpt altimeter
(in)
sea level
(mb)
Rmks
12:53 pm CDT N 16.1 G 24.2 10.00 Fair -- 68.0 48.9 51% NA NA 30.19 1021.9
11:53 am CDT N 15.0 10.00 Fair -- 66.0 50.0 56% NA NA 30.20 1022.4
10:53 am CDT N 16.1 G 19.6 10.00 Partly Cloudy -- 62.0 50.0 65% 60 NA 30.20 1022.4
9:53 am CDT NE 9.2 10.00 Overcast -- 59.0 46.9 64% 57 NA 30.20 1022.2
8:53 am CDT NE 11.5 10.00 Overcast -- 57.0 46.9 69% 54 NA 30.20 1022.3
7:53 am CDT NE 9.2 10.00 Overcast -- 55.0 46.9 74% 52 NA 30.18 1021.8
6:53 am CDT N 11.5 10.00 Overcast -- 54.0 48.0 80% 51 NA 30.17 1021.3
5:53 am CDT NE 9.2 10.00 Overcast -- 54.0 48.9 83% 51 NA 30.15 1020.8
4:53 am CDT NE 9.2 10.00 Overcast -- 54.0 50.0 87% 51 NA 30.14 1020.3
3:53 am CDT N 13.8 10.00 Overcast 00.01 55.0 51.1 87% 51 NA 30.16 1020.8
2:53 am CDT E 9.2 10.00 Light Rain 00.03 55.0 50.0 83% 52 NA 30.08 1018.1
1:53 am CDT NE 5.8 10.00 Light Rain 00.03 57.0 51.1 81% 56 NA 30.10 1018.9
12:53 am CDT N 5.8 10.00 Light Rain Trace 59.0 50.0 72% 58 NA 30.12 1019.6
11:53 pm CDT N 8.1 10.00 Overcast -- 62.0 50.0 65% 61 NA 30.13 1019.8
10:53 pm CDT N 8.1 10.00 Overcast -- 63.0 51.1 65% 63 NA 30.13 1020.0
9:53 pm CDT N 3.5 10.00 Overcast -- 62.0 55.9 80% NA NA 30.14 1020.5
8:53 pm CDT N 0.0 10.00 Overcast -- 64.0 53.1 68% NA NA 30.12 1019.8
7:53 pm CDT NE 3.5 10.00 Mostly Cloudy -- 63.0 51.1 65% NA NA 30.09 1018.5
6:53 pm CDT N 3.5 10.00 Overcast -- 65.0 48.9 56% NA NA 30.07 1017.9
5:53 pm CDT N 9.2 10.00 Overcast -- 66.0 50.0 56% NA NA 30.07 1017.9
4:53 pm CDT N 11.5 10.00 Overcast -- 68.0 50.0 53% NA NA 30.09 1018.7
3:53 pm CDT N 8.1 10.00 Overcast -- 69.0 54.0 59% NA NA 30.11 1019.2
2:53 pm CDT 4.6 10.00 Mostly Cloudy -- 70.0 53.1 55% NA NA 30.11 1019.1
1:53 pm CDT 3.5 10.00 Mostly Cloudy -- 67.0 52.0 59% NA NA 30.12 1019.7

Regional Weather Observation


Decatur, Pryor Field, AL (KDCU)

Fair
68.0 F

Pulaski Abernathy Field Airport, TN (KGZS)

Fair
66.0 F

Huntsville, Huntsville International / Jones Field, AL (KHSV)

A Few Clouds
68.0 F

Redstone Airfield, AL (KHUA)

Fair
64.0 F

Lawrenceburg-Lawrence County Airport, TN (K2M2)

Fair
64.0 F

Huntsville, Madison County Executive Airport, AL (KMDQ)

Fair
67.0 F
Advertise Here

Advertise Here